Hourly Data Report for October 31, 2015

All times are specified in Local Standard Time (LST). Add 1 hour to adjust for Daylight Saving Time where and when it is observed.

KITCHENER/WATERLOO
ONTARIO

43°27'39.000" N
80°22'43.000" W
321.60 m
6144239
71368
YKF

Download Data

Hourly Data (October 2015)
Hourly Data Report for October 31, 2015
Temp Definition
°C
Dew Point Temp Definition
°C
Rel Hum Definition
%
Wind Dir Definition
10's deg

Wind Spd Definition
km/h
Visibility Definition
km
Stn Press Definition
kPa
Hmdx Definition


Wind Chill Definition


Weather Definition


TIME
00:00 Legend Double Dagger -2.4 -2.4 100   0 3.6 98.15     Fog
01:00 Legend Double Dagger -2.3 -2.3 100 1 4 16.1 98.20   -4 LegendNANA
02:00 Legend Double Dagger -3.1 -3.2 99 34 4 16.1 98.23   -5 LegendNANA
03:00 Legend Double Dagger -3.6 -3.7 99 8 4 11.3 98.19   -5 LegendNANA
04:00 Legend Double Dagger -1.5 -1.6 99   0 16.1 98.19     LegendNANA
05:00 Legend Double Dagger -0.4 -0.4 100 5 4 16.1 98.16   -2 LegendNANA
06:00 Legend Double Dagger 0.2 0.2 100   0 16.1 98.18     LegendNANA
07:00 Legend Double Dagger 1.0 0.9 99 10 4 16.1 98.18     LegendNANA
08:00 Legend Double Dagger 2.1 1.5 96   0 16.1 98.19     LegendNANA
09:00 Legend Double Dagger 3.6 2.0 89 13 5 16.1 98.14     LegendNANA
10:00 Legend Double Dagger 6.0 3.3 83 16 5 16.1 98.08     LegendNANA
11:00 Legend Double Dagger 8.0 4.0 76 14 9 16.1 98.03     LegendNANA
12:00 Legend Double Dagger 9.2 4.3 71 14 15 16.1 97.92     LegendNANA
13:00 Legend Double Dagger 9.3 4.7 73 18 18 16.1 97.88     LegendNANA
14:00 Legend Double Dagger 9.2 4.2 71 18 13 16.1 97.74     LegendNANA
15:00 Legend Double Dagger 9.4 4.2 70 16 17 16.1 97.73     LegendNANA
16:00 Legend Double Dagger 8.9 2.7 65 14 18 16.1 97.60     LegendNANA
17:00 Legend Double Dagger 8.5 3.2 69 14 17 16.1 97.61     LegendNANA
18:00 Legend Double Dagger 7.9 3.7 75 15 17 16.1 97.55     Rain
19:00 Legend Double Dagger 7.1 4.2 82 11 11 16.1 97.48     Rain
20:00 Legend Double Dagger 7.2 3.9 80 12 13 16.1 97.33     Rain
21:00 Legend Double Dagger 6.8 4.4 84 13 17 16.1 97.25     Rain
22:00 Legend Double Dagger 6.5 4.8 89 12 18 16.1 97.11     Rain
23:00 Legend Double Dagger 6.4 5.5 94 14 18 9.7 96.99     Rain,Fog

Notes on Data Quality.

Legend

  • E = Estimated
  • M = Missing
  • NA = Not Available
  • ‡ = Partner data that is not subject to review by the National Climate Archives
Date modified: